Home > Weather > Newark > Past weeks

Flag for USA Past Weather in Newark, New Jersey, USA — Yesterday and Last 2 Weeks

Now
80 °F

Cloudy.


Feels Like: 83 °F
Forecast: 77 / 93 °F
Wind: 14 mph from Southwest

Location: Newark International Airport

Current Time: Jul 25, 2016 at 8:08:44 AM

Latest Report: Jul 25, 2016 at 6:51 AM


Visibility: 10 mi

Pressure: 29.94 "Hg

Humidity: 69%

Dew Point: 69 °F

Location of NewarkLocation

Past Weather in Newark — Graph

°F

Newark Temperature Yesterday

Maximum temperature yesterday: 95 °F (at 3:51 PM)
Minimum temperature yesterday: 74 °F (at 4:51 AM)
Average temperature yesterday: 85 °F

High & Low Weather Summary for the Past Weeks

 TemperatureHumidityPressure
High97 °F (Jul 23, 2:51 PM)96% (Jul 10, 6:51 AM)30.23 "Hg (Jul 10, 6:51 AM)
Low66 °F (Jul 11, 4:51 AM)24% (Jul 24, 3:51 PM)29.78 "Hg (Jul 22, 6:51 PM)
Average81 °F58%30.00 "Hg
* Reported Jul 10 6:51 AM — Jul 25 6:51 AM, Newark, Weather by CustomWeather, © 2016

Note: Actual official high and low records may vary slightly from our data, if they occured in-between our weather recording intervals... More about our weather records

Advertising

Newark Weather History for the Previous 24 Hours

Scroll right to see more
 ConditionsComfort  
Time TempWeatherWind HumidityBarometerVisibility
6:51 AM
Mon, Jul 25
80 °FCloudy.14 mph69%29.94 "Hg10 mi
5:51 AM79 °FOvercast.6 mph67%29.93 "Hg10 mi
4:51 AM78 °FMostly cloudy.9 mph69%29.92 "Hg10 mi
3:51 AM80 °FPartly cloudy.7 mph62%29.93 "Hg10 mi
2:51 AM81 °FPassing clouds.6 mph58%29.93 "Hg10 mi
1:51 AM81 °FPassing clouds.8 mph58%29.94 "Hg10 mi
12:51 AM81 °FPassing clouds.7 mph60%29.95 "Hg10 mi
11:51 PM
Sun, Jul 24
81 °FPassing clouds.9 mph62%29.95 "Hg10 mi
10:51 PM83 °FPassing clouds.12 mph57%29.96 "Hg10 mi
9:51 PM83 °FPartly cloudy.13 mph59%29.96 "Hg10 mi
8:51 PM85 °FBroken clouds.13 mph53%29.94 "Hg10 mi
7:51 PM87 °FBroken clouds.14 mph51%29.93 "Hg10 mi
6:51 PM92 °FBroken clouds.12 mph35%29.92 "Hg10 mi
5:51 PM95 °FBroken clouds.15 mph30%29.92 "Hg10 mi
4:51 PM94 °FBroken clouds.12 mph29%29.92 "Hg10 mi
3:51 PM95 °FPartly sunny.10 mph24%29.92 "Hg10 mi
2:51 PM94 °FBroken clouds.8 mph27%29.93 "Hg10 mi
1:51 PM94 °FBroken clouds.10 mph28%29.96 "Hg10 mi
12:51 PM92 °FBroken clouds.7 mph29%29.96 "Hg10 mi
11:51 AM90 °FBroken clouds.9 mph34%29.96 "Hg10 mi
10:51 AM88 °FScattered clouds.5 mph38%29.97 "Hg10 mi
9:51 AM86 °FScattered clouds.3 mph42%29.98 "Hg10 mi
8:51 AM83 °FPartly sunny.No wind46%29.98 "Hg10 mi
Weather by CustomWeather, © 2016

See weather overviewHow to use our weather pages